Location: Berlise
(49.6641°N, 4.1077°E)
Time: 03:15:01
(UTC+00:00)

Cosmos 372 Rocket - Pass Details

Date: 27 January 2021
Orbit: 737 x 768 km, 74.1° (Epoch: 24 February)

Event Time Altitude Azimuth Distance (km) Brightness Sun altitude
Exits shadow 04:40:34 50° 186° (S) 978 4.4 -26.1°
Drops below altitude 10° 04:44:27 10° 168° (SSE) 2,294 6.6 -25.5°
Sets 04:46:48 0° 166° (SSE) 3,212 7.4 -25.1°
